Other Public Products
Issued by NWS Charleston, SC

Home | Current Version | Previous Version | Text Only | Print | Product List | Glossary On
Versions: 1 2 3 4 5 6 7 8 9 10 11 12 13 14 15 16 17 18 19 20 21 22 23 24 25 26 27 28 29 30 31 32 33 34 35 36 37 38 39 40 41 42 43 44 45 46 47 48 49 50
506
FPUS82 KCHS 260427
OPUCHS

TEST...KCHS/KSAV Gateway Observations...TEST
National Weather Service Charleston SC
1200 AM EDT SUN MAR 26 2017

NOTE: "fair" indicates few or no clouds below 12,000 feet with no
significant weather and/or obstructions to visibility.

SCZ050-WAZ558-NCZ071-TXZ119-213-PAZ071-DCZ001-FLZ074-172-MI076-
NYZ176-178-MAZ016-IL014-TNZ027-NJZ106-GAZ044-MD014-260500-

...Gateway Observations for Charleston International...

CITY           SKY/WX    TMP DP  RH WIND       PRES   REMARKS
Chas Airport   PTCLDY    58  55  90 CALM      30.23S
Seattle        MOCLDY    46  34  62 S3        30.06F
Charlotte      PTCLDY    63  50  62 S16       30.21S
Dallas DFW     PTCLDY    60  46  59 E3        29.92S
Dallas Love    CLEAR     60  49  66 E7        29.93S
Philladelphia  PTCLDY    44  39  82 E13       30.35R
Wash National  MOCLDY    60  50  69 NE22      30.21R
Baltimore      CLOUDY    53  47  79 NE17      30.26R
Miami          MOCLDY    72  65  78 E12       30.11F
Detroit        CLOUDY    41  36  82 E13G18    30.17S
Newark         CLOUDY    45  39  79 E9        30.39R
Laguardia      CLOUDY    44  36  73 NE12      30.40R
J F K          CLOUDY    44  39  82 NE12      30.40R
Boston Logan   CLOUDY    34  31  88 NW7       30.43R WCI  28
Ft. Lauderdale MOCLDY    72  65  78 E20       30.11F
Chicago O`Hare LGT RAIN  45  43  93 NE9       29.96F FOG
Chicago Midway CLOUDY    49  48  97 NE6       29.96F FOG
Houston Bush   PTCLDY    63  54  72 CALM      29.95R
Houston Hobby  CLEAR     68  66  93 S7        29.95R
Nashville      LGT RAIN  60  57  89 S17       30.02S
Atlanta        MOCLDY    67  50  54 SE10      30.11S

$$

GAZ044-118-TXZ119-213-NCZ071-DCZ001-MDZ014-506-PAZ021-071-NJZ106-
NYZ176-178-MAZ106-OHZ011-021-055-MIZ076-KYZ091-ILZ014-INZ047-
MNZ060-ONZ431-260500-

...Gateway Observations for Savannah International...

CITY           SKY/WX    TMP DP  RH WIND       PRES   REMARKS
Savannah Arpt  CLEAR     62  55  77 E6        30.21S
Atlanta        MOCLDY    67  50  54 SE10      30.11S
Charlotte      PTCLDY    63  50  62 S16       30.21S
Dallas DFW     PTCLDY    60  46  59 E3        29.92S
Houston Bush   PTCLDY    63  54  72 CALM      29.95R
Wash National  MOCLDY    60  50  69 NE22      30.21R
Wash Dulles    CLOUDY    66  51  58 E10       30.18R
Baltimore      CLOUDY    53  47  79 NE17      30.26R
Philadelphia   PTCLDY    44  39  82 E13       30.35R
Newark         CLOUDY    45  39  79 E9        30.39R
Laguardia      CLOUDY    44  36  73 NE12      30.40R
J F K          CLOUDY    44  39  82 NE12      30.40R
Boston         CLOUDY    34  31  88 NW7       30.43R WCI  28
Pittsburg      CLOUDY    63  52  67 E7        30.12F
Akron          CLOUDY    56  48  74 E7        30.11F
Cleveland      CLOUDY    43  36  76 N7        30.14F
Cincinnati     CLOUDY    67  51  56 SE7       30.01S
Columbus       CLOUDY    56  49  77 E3        30.03F
Detroit        CLOUDY    41  36  82 E13G18    30.17S
Chicago O`Hare LGT RAIN  45  43  93 NE9       29.96F FOG
Minneapolis    DRIZZLE   39  35  86 E10       30.03F FOG     WCI  32
Indianapolis   CLOUDY    58  57  97 E7        29.95F
Toronto Canada MOCLDY    36  30  80 E8G18     30.35R WCI  29

$$




USA.gov is the U.S. government's official web portal to all federal, state and local government web resources and services.